EUTELSAT 16A

Last updated on Thu Aug 13 2026 00:02:59 GMT+0000 (Coordinated Universal Time)

1 37836U 11057A 26224.57521481 .00000087 00000+0 00000+0 0 9993 2 37836 0.0396 4.8117 0005562 138.8560 40.4264 1.00273697 7908
UTC large
Height (km)
Speed (km/s)
/
Latitude / Longitude
Inclination (degrees)
Orbital Period (minutes)
Azimuth
Elevation
Range (km)
Doppler Factor

Next 0 passes for location: London (51.5072 / 0.1276)

No passes found over London.
EUTELSAT 16A